Location: Shepherdstown, WV
(39.4326°N, 77.8042°W)
Time: 05:55:50
(UTC-04:00)

Vanguard 3 - Pass Details

Date: 07 August 2021
Orbit: 510 x 3260 km, 33.3° (Epoch: 21 September)

Event Time Altitude Azimuth Distance (km) Brightness Sun altitude
Rises 19:25:35 0° 264° (W) 5,146 12.8 8.5°
Reaches altitude 10° 19:28:26 10° 262° (W) 4,454 12.5 8.0°
Maximum altitude 19:41:52 70° 182° (S) 2,919 10.0 5.5°
Drops below altitude 10° 20:01:30 10° 104° (ESE) 6,197 11.0 1.9°
Sets 20:06:20 0° 103° (ESE) 7,176 11.3 1.0°
